Theta_e
291 285 283 284 287 287 288 286 285 286 292 291 291 290 292 294 294 294 295 295 295 298 306 312 318 318 317 317 319 320 321 321 320 318 318 319 319 321 323 326 327 325 325 327
288 284 288 289 288 287 286 284 285 289 293 292 290 290 295 295 294 296 297 297 297 297 306 311 316 317 317 320 320 319 320 319 320 321 320 320 320 321 322 324 323 322 321 321
285 288 293 290 289 287 287 285 286 286 291 293 290 289 291 295 295 296 297 298 298 298 304 311 314 316 317 319 319 319 319 318 318 320 319 318 319 320 320 322 323 322 321 320
289 293 291 290 289 289 284 291 290 289 288 282 289 281 288 292 295 296 297 297 297 298 305 312 313 314 317 318 320 319 317 317 319 319 318 317 315 315 318 320 322 323 322 320
288 292 291 289 290 292 288 293 292 291 287 286 287 283 286 291 290 293 297 298 298 299 308 312 314 315 317 318 317 317 316 317 318 318 318 312 314 315 318 319 320 321 322 320
291 295 294 292 294 294 294 292 291 290 287 281 285 284 283 288 292 294 297 299 299 297 309 312 314 315 318 318 317 317 318 318 317 317 317 312 314 315 315 315 318 318 319 321
287 290 293 295 289 293 292 289 280 280 280 279 288 285 287 294 296 297 298 299 300 299 303 309 311 314 316 316 318 318 317 316 316 315 316 315 312 313 312 316 317 318 317 317
281 278 290 294 291 288 289 288 280 276 278 280 289 282 288 299 301 301 302 302 303 299 302 309 312 314 315 317 317 316 315 315 315 315 315 313 312 312 312 315 317 318 318 318
279 280 291 293 293 293 290 287 291 285 286 283 284 288 296 301 301 301 302 304 304 306 303 308 311 314 315 316 316 316 315 315 316 316 315 314 311 312 315 315 316 317 317 318
285 280 288 291 294 293 293 295 286 286 278 277 282 285 288 295 297 300 301 302 304 307 308 309 312 313 316 317 316 317 316 314 315 316 316 315 315 313 313 311 313 316 317 317
287 284 284 291 288 287 290 289 289 289 287 279 278 283 297 297 300 299 301 302 303 307 308 309 311 313 316 316 316 315 315 314 315 315 316 316 315 314 311 312 312 311 315 316
290 287 281 284 291 294 294 289 289 285 282 285 284 283 300 301 300 302 300 301 303 304 307 311 312 313 314 314 315 315 314 315 315 315 315 316 316 315 312 313 312 313 312 314
289 285 279 281 286 292 289 291 291 291 289 283 282 284 301 301 299 301 299 299 300 300 300 303 307 311 313 313 314 314 315 314 315 315 315 314 314 315 312 313 314 312 312 312
292 285 281 277 280 287 284 287 289 289 284 285 285 288 295 297 297 299 300 297 297 297 298 298 298 301 303 306 307 308 308 313 316 315 315 314 314 314 312 312 313 313 313 312
288 282 284 284 286 286 286 285 286 285 288 285 287 289 294 297 298 300 300 296 294 292 293 294 295 296 298 299 300 302 303 305 307 314 310 307 312 315 314 314 313 313 314 314
288 282 283 281 284 283 281 282 284 285 287 289 290 290 298 302 303 301 299 295 291 290 290 290 291 292 293 294 295 295 296 297 299 299 300 301 303 304 304 307 313 315 315 316
286 283 280 277 281 281 276 282 283 285 288 290 286 292 299 299 301 299 296 294 291 289 288 288 288 289 290 290 291 290 291 293 293 294 294 295 297 297 299 301 301 301 302 304
284 283 281 277 279 270 280 286 287 290 292 293 294 298 298 294 293 295 295 292 289 288 288 287 287 288 289 289 289 288 288 288 288 289 290 291 292 292 294 294 294 295 297 294
287 283 278 274 275 278 281 288 288 287 286 296 296 295 293 292 290 288 290 290 288 287 287 286 286 287 288 288 287 287 285 285 285 285 287 288 289 289 291 290 291 291 290 288
285 284 279 278 273 270 280 287 291 291 283 297 299 294 292 294 287 285 288 288 286 286 286 285 285 286 286 287 286 284 283 283 283 283 284 285 287 287 287 288 288 288 287 286
279 280 278 276 274 278 286 291 294 279 283 295 298 295 294 292 290 286 286 286 286 285 285 285 284 283 284 286 285 283 282 281 282 283 284 284 284 285 286 286 286 286 285 284
279 278 275 278 276 273 292 292 285 291 293 291 291 293 287 286 285 285 284 283 283 282 283 284 283 282 283 285 284 282 280 282 282 282 282 282 282 283 284 283 283 284 284 283
276 281 279 280 280 288 289 289 292 295 292 289 287 287 287 285 283 283 281 281 281 281 281 282 282 281 281 282 283 281 281 281 280 281 280 280 281 281 282 282 281 281 281 281
286 288 285 286 289 289 289 289 288 287 287 290 291 288 286 282 282 281 281 280 280 280 280 280 280 279 278 280 280 282 282 281 280 279 279 280 279 279 280 280 280 280 279 279
285 284 283 285 289 288 288 288 286 285 285 283 284 284 283 282 280 280 278 277 277 278 278 278 278 277 277 278 278 279 281 280 279 278 278 277 278 278 277 278 278 278 279 279
285 283 280 281 285 286 285 287 287 283 282 282 280 279 280 280 278 277 275 276 276 275 276 276 276 276 276 276 276 276 279 280 278 276 274 273 274 274 274 275 275 279 279 279
Wind_Speed
3 4 9 8 7 4 3 4 9 3 7 6 14 13 11 8 7 9 10 10 9 12 16 7 11 11 9 8 10 13 12 10 9 7 5 4 3 2 3 5 13 13 13 13
1 7 6 6 5 5 5 8 10 8 10 8 8 16 16 13 9 9 12 13 11 7 7 7 12 13 13 13 13 13 12 12 9 5 3 3 3 2 1 2 6 9 12 12
6 4 2 6 5 5 6 7 9 12 5 10 8 21 11 8 6 7 11 13 9 12 13 11 14 16 14 16 17 14 14 12 7 8 5 3 3 3 1 4 5 7 9 10
6 5 7 4 5 6 5 7 10 10 5 7 3 12 4 7 13 8 11 9 11 10 10 10 13 15 18 16 15 13 12 13 11 8 7 6 4 4 2 2 3 6 9 9
6 5 3 5 7 4 6 2 3 3 6 6 4 5 4 4 6 9 9 10 10 8 13 16 19 19 14 15 14 11 11 12 10 10 9 5 5 3 3 4 5 4 6 10
4 1 5 6 3 4 0 1 5 3 2 7 12 8 3 4 9 7 6 5 7 6 11 9 8 9 13 13 12 12 12 11 10 9 11 7 8 6 5 4 4 4 3 5
2 5 4 4 2 3 3 2 3 2 4 5 2 7 12 10 11 6 5 7 8 9 9 12 16 16 17 17 16 14 14 14 13 9 10 9 6 7 7 7 5 6 5 3
4 3 7 4 6 5 5 5 4 3 2 4 4 5 4 7 11 8 5 5 6 7 6 14 18 18 19 19 18 16 15 15 11 11 9 6 6 4 4 5 5 6 4 5
4 4 2 4 3 8 3 6 1 3 3 3 4 6 2 17 19 18 16 14 12 11 8 11 11 16 18 19 18 16 14 14 10 8 7 6 5 5 5 5 4 4 5 5
3 2 1 3 4 1 3 4 2 3 3 3 5 1 5 13 18 16 17 16 17 10 1 7 10 10 10 11 10 10 10 12 10 8 6 5 6 5 5 5 4 5 4 5
4 2 1 4 5 7 3 3 3 2 2 2 4 1 4 10 12 14 15 16 17 14 7 10 11 10 12 11 10 8 10 11 9 7 5 6 5 6 6 6 5 5 4 5
0 3 3 7 3 7 6 3 5 3 3 3 1 5 4 5 11 13 15 16 15 17 14 11 12 14 14 12 11 8 8 8 8 7 6 6 6 7 7 8 9 8 7 6
2 2 2 1 3 5 4 2 3 4 2 5 2 3 1 7 14 14 15 16 14 15 16 15 14 11 11 11 10 9 8 7 6 7 7 6 5 7 7 7 8 10 9 9
1 3 3 3 3 1 3 7 8 4 3 2 6 5 2 1 5 12 15 15 14 14 15 15 14 14 13 13 11 11 11 6 2 5 7 5 6 6 5 5 6 6 7 8
1 3 2 1 3 3 3 8 9 10 11 7 7 7 6 4 6 1 9 11 12 15 16 16 14 12 13 13 12 12 11 10 9 4 6 8 4 3 5 6 6 6 6 7
4 2 2 3 3 4 5 12 10 13 13 14 14 18 9 6 9 9 10 8 11 13 15 16 15 16 14 14 13 12 11 12 11 12 10 9 9 8 10 8 5 4 7 9
1 4 2 3 4 7 6 3 6 7 10 10 11 10 5 2 10 12 14 9 10 12 13 13 13 15 13 13 12 12 11 11 14 12 12 11 10 11 10 9 9 9 8 9
2 3 1 2 3 2 5 14 5 6 7 10 5 0 10 11 13 15 10 13 11 11 11 9 11 12 13 10 10 9 13 14 11 12 12 11 11 11 10 11 11 10 9 10
4 3 1 1 1 6 7 3 6 10 18 7 5 13 16 16 15 13 12 11 12 11 8 8 10 10 9 10 12 13 12 11 11 11 12 12 11 11 11 12 11 10 9 10
5 3 4 2 2 3 5 3 10 7 5 4 2 13 16 13 5 4 8 9 13 12 11 11 11 11 12 13 13 13 12 11 13 13 13 12 11 11 11 10 10 9 9 11
3 3 4 2 2 7 6 12 7 1 5 10 7 13 13 4 7 12 10 13 12 11 12 11 12 11 11 10 12 13 13 14 13 12 12 12 12 11 10 10 10 9 9 9
3 4 2 3 3 8 10 8 4 7 8 8 18 9 16 17 17 14 11 12 12 12 12 11 11 11 11 11 10 12 13 11 11 12 12 12 12 11 10 12 10 10 9 10
3 4 3 5 3 2 7 7 8 8 7 7 15 12 12 14 14 13 11 12 12 11 10 10 10 12 12 13 12 12 11 9 10 10 13 13 13 12 12 12 11 9 10 9
3 7 2 1 2 4 5 8 12 13 15 13 9 13 12 15 11 13 11 11 11 10 10 10 11 12 11 11 11 10 10 8 10 12 11 11 13 12 12 11 11 10 9 9
2 5 6 4 3 5 7 7 8 13 16 17 15 14 14 14 14 13 12 12 10 10 10 11 10 11 12 11 11 11 10 9 10 11 10 10 8 10 13 14 11 11 14 12
3 3 3 1 8 3 7 8 9 12 13 12 14 15 15 14 14 14 11 10 9 10 9 9 10 11 11 11 11 10 10 9 9 9 7 6 6 7 7 7 10 24 23 24
Wind_Direction
194 158 213 198 198 207 253 273 274 261 278 292 286 277 280 281 270 287 283 265 245 231 244 191 171 154 150 147 154 168 166 158 164 157 145 154 165 170 212 229 211 186 196 193
4 250 211 199 208 216 240 265 275 281 248 260 262 278 283 264 250 237 258 262 249 227 206 170 169 166 172 167 175 174 170 170 172 167 125 143 152 149 141 99 118 127 126 138
178 235 101 171 227 229 235 248 268 268 271 273 275 274 262 257 245 255 261 241 254 228 208 180 180 179 166 177 185 178 171 170 158 131 120 106 105 97 118 125 133 140 133 129
225 243 226 184 235 186 247 225 252 277 282 265 42 290 219 271 288 269 263 260 254 215 197 182 184 179 181 180 178 172 163 171 175 155 162 158 169 143 159 105 124 134 141 142
223 177 172 190 229 141 249 243 253 245 261 296 181 273 285 246 258 258 253 258 265 215 187 185 198 183 173 166 170 156 157 171 167 175 181 160 144 129 115 109 116 126 143 156
220 138 179 201 185 187 127 240 250 233 211 258 226 198 255 236 231 235 223 244 279 232 194 184 156 153 165 169 167 160 168 177 172 176 184 165 159 145 133 131 150 145 143 162
235 219 184 141 115 11 171 208 295 238 205 250 295 185 258 273 269 250 316 329 299 253 166 162 162 169 176 175 174 170 175 184 182 178 177 184 171 154 152 156 162 165 167 154
188 281 164 180 174 175 205 187 207 256 249 303 243 213 247 29 22 4 346 311 5 316 219 186 180 174 177 177 176 170 175 177 171 176 169 165 162 152 151 163 156 169 168 168
177 282 136 161 135 146 176 213 242 328 253 248 244 276 20 10 5 357 1 357 345 338 276 209 186 175 171 175 174 174 166 174 164 170 164 159 161 152 162 157 155 156 154 153
203 291 263 82 100 105 161 162 159 174 265 253 278 324 353 5 3 356 357 359 351 321 353 113 127 147 147 152 148 164 158 166 160 164 172 158 170 158 148 147 165 154 156 159
151 141 8 107 192 171 162 212 220 274 227 264 318 290 65 9 10 359 2 8 10 15 56 94 101 117 137 123 129 143 156 148 150 156 148 152 160 162 152 163 173 177 161 173
74 108 237 221 236 186 177 159 159 254 171 232 282 271 75 4 353 13 25 17 20 26 37 66 102 127 129 122 119 128 125 147 155 152 160 167 163 173 173 182 182 179 185 185
231 144 257 110 358 57 36 326 204 221 175 225 280 267 71 339 343 11 34 23 22 34 39 44 56 74 101 114 122 133 141 142 143 156 175 184 177 187 193 190 180 180 182 190
321 110 149 148 214 162 240 286 298 298 241 313 243 280 18 337 313 335 31 30 22 37 45 46 40 48 56 65 71 70 60 59 129 172 190 186 190 199 202 195 188 183 189 191
183 102 42 250 245 217 267 275 278 265 248 236 260 291 340 218 248 112 55 51 31 35 38 40 39 41 47 52 54 54 48 43 29 85 69 45 18 213 199 206 209 201 198 204
351 102 55 308 4 340 292 286 268 265 259 250 258 270 259 196 174 135 90 58 55 42 40 42 37 39 37 45 48 45 43 40 54 55 50 35 35 43 39 35 359 238 226 231
359 127 99 259 335 325 318 177 276 268 256 254 246 257 193 102 174 144 116 89 74 61 44 42 39 39 27 38 45 48 43 46 49 48 43 32 28 37 23 31 33 22 13 10
141 113 56 236 340 343 250 314 281 307 319 307 223 358 100 101 80 76 79 100 75 63 54 45 43 43 29 33 48 56 48 42 45 44 42 32 31 35 28 33 29 24 26 34
186 131 105 114 243 297 306 356 25 342 308 285 270 120 121 120 86 65 65 74 86 74 60 49 55 43 34 38 41 51 53 48 49 46 43 34 32 34 35 37 32 28 43 47
98 88 127 155 104 258 254 334 356 321 283 21 58 156 155 171 131 118 101 86 73 67 53 45 43 44 26 34 44 46 44 43 43 39 37 36 38 40 45 42 42 46 57 62
100 96 184 136 236 284 318 315 314 73 295 349 296 177 172 121 93 110 93 79 73 69 63 57 54 49 31 37 53 59 52 44 40 42 43 42 39 44 41 45 45 46 53 62
153 138 205 137 185 261 2 336 7 312 31 39 40 66 104 106 101 94 86 79 71 66 64 61 61 51 37 36 51 55 53 48 42 45 47 44 44 43 46 49 45 50 54 60
357 182 189 190 236 24 28 30 2 37 65 62 86 64 71 82 84 87 83 80 70 61 60 58 61 55 38 34 39 56 51 47 53 52 51 46 47 46 45 48 48 47 42 47
15 7 259 357 70 65 53 58 46 47 55 49 77 101 102 100 95 97 90 80 66 56 57 59 58 55 47 35 37 47 57 63 67 64 56 56 60 59 56 56 50 50 46 47
7 325 358 304 120 112 69 62 83 78 70 61 53 68 84 92 86 87 79 70 68 61 54 54 58 58 49 41 37 26 41 54 62 61 57 49 48 55 61 58 54 54 49 50
360 348 288 357 345 22 57 42 64 80 80 96 89 73 74 84 90 87 81 72 66 66 59 56 58 57 48 47 42 28 31 47 59 62 52 42 51 45 45 59 67 57 60 59